Location: Luz Observatory
(34.5000°N, 117.2833°W)
Time: 03:53:16
(UTC-07:00)

Okean 3 Rocket - Visible Passes

Search period start: 25 July 2017 00:00
Search period end: 04 August 2017 00:00
Orbit: 614 x 646 km, 82.5° (Epoch: 25 July)

Date Brightness Start Highest point End Pass type
(mag) Time Alt. Az. Time Alt. Az. Time Alt. Az.
25 Jul 3.6 04:50:20 10° N 04:54:47 85° E 04:59:16 10° S visible
26 Jul 6.5 03:35:11 10° NE 03:37:19 13° ENE 03:39:27 10° ESE visible
26 Jul 4.0 05:11:23 10° NNW 05:15:35 43° W 05:19:49 10° SSW visible
27 Jul 5.6 03:54:36 10° NNE 03:58:24 27° ENE 04:02:14 10° SE visible
28 Jul 4.1 04:14:58 10° N 04:19:22 59° E 04:23:48 10° SSE visible
29 Jul 3.6 04:35:49 10° NNW 04:40:14 61° W 04:44:39 10° S visible
30 Jul 6.0 03:19:37 10° NNE 03:22:55 20° ENE 03:26:14 10° ESE visible
30 Jul 4.6 04:57:10 10° NNW 05:00:58 28° W 05:04:22 12° SW visible
31 Jul 4.7 03:39:41 10° N 03:43:56 42° E 03:46:46 19° SE visible
31 Jul 5.4 05:19:28 10° WNW 05:21:36 13° W 05:23:43 10° WSW visible
01 Aug 3.5 04:00:21 10° N 04:04:50 87° W 04:06:35 37° S visible
02 Aug 6.2 02:44:54 10° NE 02:47:24 15° ENE 02:49:10 12° E visible
02 Aug 4.1 04:21:28 10° NNW 04:25:37 39° W 04:26:30 35° WSW visible
03 Aug 5.2 03:04:31 10° NNE 03:08:29 30° ENE 03:09:10 29° E visible
03 Aug 5.1 04:43:12 10° NW 04:46:18 19° W 04:46:30 19° W visible
